Location: Newark
(50.4348°N, 30.5552°E)
Time: 20:30:12
(UTC+00:00)

Vanguard 3 - Pass Details

Date: 18 January 2020
Orbit: 508 x 3263 km, 33.3° (Epoch: 22 February)

Event Time Altitude Azimuth Distance (km) Brightness Sun altitude
Rises 15:54:18 0° 207° (SSW) 7,219 12.7 -13.6°
Reaches altitude 10° 16:00:55 10° 195° (SSW) 6,097 12.0 -14.6°
Maximum altitude 16:13:25 23° 154° (SSE) 4,523 10.8 -16.5°
Enters shadow 16:22:14 12° 113° (ESE) 4,625 10.5 -17.9°
